Update:The Chang Zheng-3B rocket body re-entered the Earths atmosphere on the 21st December, 2011 @ 17:12 GMT ± 1 minute.
Inclination: 24.88°Revolution Number: 398Predicted Location: 5.3°S, 112.2°E
Update:The Chang Zheng-3B rocket body is predicted to re-enter the Earths atmosphere on the 21st December, 2011 @ 20:22 GMT ± 9 hours.
CZ-3B RB 1 37780U 11042B 11355.40834579 .99999999 -40997-5 73196-2 0 1377 2 37780 024.8092 114.2342 0722523 329.7764 095.1686 14.78950387 3941
Period: 117.67 minutesInclination: 24.88°Apogee: 3045 kmPerigee: 108 km Revolution Number: 400Predicted Location: 9.5°S, 55.1°E
A Chang Zheng-3B rocket body that was launched on the 11th August, 2011, from the Xichang space centre, for the PakSat-1R satellite mission is predicted to re-enter the Earths atmosphere on the 20th December, 2011 @ 05:16 GMT ± 24 hours.
CZ-3B RB 1 37780U 11042B 11354.71770088 .60146704 -25091-4 17676-2 0 1312 2 37780 024.8671 118.2366 1258141 320.9429 190.1747 13.59369153 3842
Period: 117.67 minutesInclination: 24.88°Apogee: 3045 kmPerigee: 108 km Revolution Number: 380Predicted Location: 0.8° N, 315.5° E